N709LP KAGC-KBOS

Flight info

Callsign N709LP
Flight time 1h 7m
Altitude 41000
Route TYROO PSB JFUND JFUND2
Aircraft CL60/M-SBDE1E2E3FGHIJ1J4J5J7M3RWXYZ/LB1V1D1

Departure

Time 2026-05-06 16:08
Airport Allegheny County Airport (KAGC)

Arrival

Time 2026-05-06 17:15
Airport Boston Logan International Airport (KBOS)
Time Latitude Longitude Altitude Speed Heading
2026-05-06 15:27 40.35284 -79.92758 1259 ft 0 kts 162°
2026-05-06 16:01 40.35275 -79.92776 1259 ft 6 kts 306°
2026-05-06 16:02 40.35328 -79.92744 1259 ft 10 kts 65°
2026-05-06 16:02 40.35347 -79.92635 1259 ft 14 kts 75°
2026-05-06 16:02 40.35350 -79.92490 1259 ft 17 kts 89°
2026-05-06 16:02 40.35352 -79.92351 1259 ft 13 kts 89°
2026-05-06 16:03 40.35354 -79.92222 1259 ft 15 kts 88°
2026-05-06 16:03 40.35356 -79.92064 1259 ft 17 kts 89°
2026-05-06 16:03 40.35358 -79.91924 1259 ft 10 kts 89°
2026-05-06 16:03 40.35360 -79.91844 1259 ft 0 kts 89°
2026-05-06 16:06 40.35360 -79.91830 1259 ft 5 kts 88°
2026-05-06 16:06 40.35395 -79.91785 1259 ft 10 kts 355°
2026-05-06 16:07 40.35432 -79.91801 1259 ft 6 kts 291°
2026-05-06 16:07 40.35433 -79.91819 1259 ft 0 kts 269°
2026-05-06 16:07 40.35432 -79.92133 1259 ft 92 kts 270°
2026-05-06 16:07 40.35425 -79.93371 1536 ft 162 kts 274°
2026-05-06 16:08 40.35394 -79.94899 2542 ft 180 kts 271°
2026-05-06 16:08 40.35364 -79.96551 3627 ft 191 kts 271°
2026-05-06 16:08 40.35310 -79.98267 4929 ft 196 kts 270°
2026-05-06 16:08 40.35299 -80.00065 5699 ft 199 kts 269°
2026-05-06 16:09 40.35440 -80.02004 5925 ft 228 kts 286°
2026-05-06 16:09 40.36395 -80.03690 5953 ft 236 kts 322°
2026-05-06 16:09 40.38021 -80.04314 5972 ft 252 kts 358°
2026-05-06 16:09 40.39693 -80.03587 5981 ft 263 kts 33°
2026-05-06 16:10 40.40832 -80.01708 6004 ft 269 kts 69°
2026-05-06 16:10 40.41286 -79.99288 6003 ft 280 kts 78°
2026-05-06 16:10 40.41821 -79.96649 6771 ft 313 kts 75°
2026-05-06 16:10 40.42404 -79.93881 8318 ft 319 kts 76°
2026-05-06 16:11 40.42977 -79.91106 9774 ft 325 kts 77°
2026-05-06 16:11 40.43565 -79.88239 11100 ft 334 kts 77°
2026-05-06 16:11 40.44175 -79.85253 12390 ft 343 kts 76°
2026-05-06 16:11 40.44804 -79.82140 13148 ft 368 kts 76°
2026-05-06 16:12 40.45478 -79.78786 14021 ft 385 kts 76°
2026-05-06 16:12 40.46159 -79.75380 15021 ft 395 kts 76°
2026-05-06 16:12 40.46865 -79.71835 15983 ft 404 kts 75°
2026-05-06 16:12 40.47578 -79.68251 16921 ft 413 kts 75°
2026-05-06 16:13 40.48314 -79.64547 17809 ft 423 kts 75°
2026-05-06 16:13 40.49060 -79.60768 18578 ft 434 kts 75°
2026-05-06 16:13 40.49809 -79.56969 19523 ft 437 kts 75°
2026-05-06 16:13 40.50581 -79.53039 20422 ft 443 kts 75°
2026-05-06 16:14 40.51347 -79.49130 21152 ft 451 kts 75°
2026-05-06 16:14 40.52142 -79.45070 21883 ft 459 kts 75°
2026-05-06 16:14 40.52946 -79.40947 22560 ft 468 kts 75°
2026-05-06 16:14 40.53750 -79.36811 23229 ft 475 kts 75°
2026-05-06 16:15 40.54511 -79.32886 23883 ft 481 kts 76°
2026-05-06 16:15 40.55341 -79.28603 24554 ft 488 kts 76°
2026-05-06 16:15 40.56173 -79.24290 25250 ft 492 kts 76°
2026-05-06 16:15 40.57028 -79.19852 25913 ft 498 kts 76°
2026-05-06 16:16 40.57872 -79.15461 26497 ft 504 kts 76°
2026-05-06 16:16 40.58739 -79.10938 27071 ft 510 kts 75°
2026-05-06 16:16 40.59616 -79.06354 27639 ft 515 kts 76°
2026-05-06 16:16 40.60500 -79.01723 28175 ft 520 kts 76°
2026-05-06 16:17 40.61394 -78.97033 28735 ft 524 kts 76°
2026-05-06 16:17 40.62300 -78.92261 29210 ft 530 kts 76°
2026-05-06 16:17 40.63215 -78.87433 29684 ft 535 kts 76°
2026-05-06 16:17 40.64129 -78.82598 30135 ft 539 kts 75°
2026-05-06 16:18 40.65044 -78.77750 30563 ft 544 kts 75°
2026-05-06 16:18 40.65973 -78.72810 31011 ft 547 kts 75°
2026-05-06 16:18 40.66886 -78.67934 31396 ft 551 kts 75°
2026-05-06 16:18 40.67821 -78.62934 31781 ft 555 kts 75°
2026-05-06 16:19 40.68744 -78.57987 32146 ft 558 kts 75°
2026-05-06 16:19 40.69675 -78.52982 32492 ft 562 kts 75°
2026-05-06 16:19 40.70607 -78.47956 32810 ft 565 kts 75°
2026-05-06 16:19 40.71545 -78.42913 33107 ft 568 kts 74°
2026-05-06 16:20 40.72683 -78.37891 33425 ft 568 kts 67°
2026-05-06 16:20 40.74153 -78.33112 33734 ft 566 kts 62°
2026-05-06 16:20 40.76017 -78.28574 34227 ft 556 kts 52°
2026-05-06 16:20 40.78187 -78.24348 34702 ft 551 kts 49°
2026-05-06 16:21 40.80396 -78.20201 35123 ft 550 kts 49°
2026-05-06 16:21 40.82584 -78.16084 35528 ft 549 kts 48°
2026-05-06 16:21 40.84803 -78.11910 35937 ft 547 kts 49°
2026-05-06 16:21 40.86973 -78.07825 36220 ft 549 kts 48°
2026-05-06 16:22 40.89176 -78.03675 36486 ft 551 kts 48°
2026-05-06 16:22 40.91233 -77.99341 36913 ft 556 kts 55°
2026-05-06 16:22 40.92983 -77.94688 37187 ft 563 kts 62°
2026-05-06 16:22 40.94455 -77.89921 37532 ft 564 kts 64°
2026-05-06 16:23 40.95922 -77.85026 37798 ft 564 kts 65°
2026-05-06 16:23 40.97384 -77.80160 38060 ft 565 kts 64°
2026-05-06 16:23 40.98867 -77.75224 38355 ft 565 kts 64°
2026-05-06 16:23 41.00313 -77.70400 38617 ft 565 kts 64°
2026-05-06 16:24 41.01778 -77.65511 38885 ft 565 kts 64°
2026-05-06 16:24 41.03242 -77.60622 39163 ft 564 kts 64°
2026-05-06 16:24 41.04693 -77.55769 39384 ft 564 kts 63°
2026-05-06 16:24 41.06129 -77.50965 39601 ft 564 kts 64°
2026-05-06 16:25 41.07575 -77.46116 39874 ft 562 kts 64°
2026-05-06 16:25 41.09027 -77.41243 40126 ft 560 kts 63°
2026-05-06 16:25 41.10401 -77.36622 40381 ft 559 kts 64°
2026-05-06 16:25 41.11832 -77.31808 40593 ft 557 kts 65°
2026-05-06 16:26 41.13252 -77.27023 40787 ft 555 kts 65°
2026-05-06 16:26 41.14684 -77.22189 40813 ft 557 kts 65°
2026-05-06 16:26 41.17510 -77.12625 40800 ft 557 kts 64°
2026-05-06 16:27 41.20329 -77.03050 40820 ft 556 kts 64°
2026-05-06 16:27 41.23128 -76.93502 40812 ft 555 kts 65°
2026-05-06 16:28 41.25940 -76.83886 40810 ft 555 kts 65°
2026-05-06 16:28 41.28739 -76.74273 40813 ft 555 kts 65°
2026-05-06 16:29 41.31520 -76.64688 40813 ft 555 kts 64°
2026-05-06 16:29 41.34307 -76.55046 40808 ft 554 kts 64°
2026-05-06 16:30 41.36610 -76.47053 40811 ft 553 kts 65°
2026-05-06 16:30 41.39848 -76.35772 40820 ft 552 kts 65°
2026-05-06 16:31 41.42524 -76.26408 40818 ft 552 kts 66°
2026-05-06 16:31 41.45266 -76.16784 40814 ft 552 kts 65°
2026-05-06 16:32 41.47984 -76.07204 40815 ft 551 kts 65°
2026-05-06 16:32 41.50704 -75.97582 40813 ft 551 kts 65°
2026-05-06 16:33 41.53409 -75.87978 40816 ft 550 kts 65°
2026-05-06 16:34 41.57460 -75.73531 40817 ft 549 kts 66°
2026-05-06 16:34 41.60143 -75.63910 40825 ft 548 kts 65°
2026-05-06 16:35 41.62803 -75.54338 40822 ft 548 kts 65°
2026-05-06 16:35 41.65456 -75.44756 40814 ft 548 kts 66°
2026-05-06 16:36 41.68107 -75.35140 40818 ft 547 kts 66°
2026-05-06 16:36 41.70457 -75.26587 40810 ft 546 kts 67°
2026-05-06 16:37 41.73075 -75.17022 40822 ft 546 kts 67°
2026-05-06 16:37 41.75699 -75.07402 40826 ft 547 kts 67°
2026-05-06 16:38 41.78302 -74.97822 40826 ft 547 kts 66°
2026-05-06 16:38 41.80904 -74.88205 40824 ft 546 kts 67°
2026-05-06 16:39 41.83484 -74.78634 40827 ft 545 kts 66°
2026-05-06 16:39 41.86071 -74.69006 40802 ft 544 kts 66°
2026-05-06 16:40 41.88626 -74.59448 40800 ft 543 kts 67°
2026-05-06 16:40 41.91178 -74.49867 40808 ft 543 kts 66°
2026-05-06 16:41 41.93718 -74.40294 40805 ft 542 kts 67°
2026-05-06 16:41 41.96267 -74.30650 40820 ft 542 kts 68°
2026-05-06 16:42 41.98783 -74.21094 40807 ft 543 kts 67°
2026-05-06 16:42 42.01300 -74.11494 40821 ft 542 kts 68°
2026-05-06 16:43 42.03810 -74.01882 40799 ft 541 kts 68°
2026-05-06 16:43 42.06304 -73.92293 40809 ft 540 kts 67°
2026-05-06 16:44 42.08764 -73.82801 40809 ft 539 kts 68°
2026-05-06 16:44 42.11225 -73.73262 40813 ft 538 kts 68°
2026-05-06 16:45 42.13671 -73.63742 40803 ft 538 kts 67°
2026-05-06 16:45 42.16115 -73.54196 40462 ft 544 kts 68°
2026-05-06 16:45 42.17354 -73.49342 39826 ft 547 kts 67°
2026-05-06 16:46 42.18585 -73.44509 39148 ft 544 kts 68°
2026-05-06 16:46 42.19820 -73.39645 38460 ft 543 kts 68°
2026-05-06 16:46 42.21040 -73.34832 37755 ft 542 kts 69°
2026-05-06 16:46 42.22212 -73.30196 37090 ft 541 kts 70°
2026-05-06 16:47 42.23420 -73.25404 36390 ft 540 kts 70°
2026-05-06 16:47 42.24635 -73.20581 35635 ft 540 kts 71°
2026-05-06 16:47 42.25847 -73.15756 34962 ft 538 kts 71°
2026-05-06 16:47 42.27049 -73.10960 34216 ft 538 kts 72°
2026-05-06 16:48 42.28240 -73.06195 33536 ft 539 kts 72°
2026-05-06 16:48 42.29444 -73.01369 32797 ft 536 kts 72°
2026-05-06 16:48 42.30632 -72.96603 32075 ft 529 kts 72°
2026-05-06 16:48 42.31795 -72.91937 31409 ft 522 kts 72°
2026-05-06 16:49 42.32952 -72.87270 30705 ft 516 kts 73°
2026-05-06 16:49 42.34085 -72.82694 30045 ft 509 kts 73°
2026-05-06 16:49 42.35219 -72.78106 29347 ft 503 kts 73°
2026-05-06 16:49 42.36324 -72.73632 28674 ft 497 kts 73°
2026-05-06 16:50 42.37396 -72.69279 28041 ft 490 kts 73°
2026-05-06 16:50 42.38472 -72.64904 27370 ft 485 kts 73°
2026-05-06 16:50 42.39523 -72.60618 26744 ft 479 kts 73°
2026-05-06 16:50 42.40227 -72.57745 26299 ft 475 kts 73°
2026-05-06 16:51 42.41591 -72.52168 25474 ft 468 kts 73°
2026-05-06 16:51 42.42607 -72.48004 24873 ft 462 kts 73°
2026-05-06 16:51 42.43607 -72.43901 24261 ft 457 kts 73°
2026-05-06 16:51 42.44587 -72.39872 23671 ft 451 kts 73°
2026-05-06 16:52 42.45564 -72.35845 23077 ft 446 kts 73°
2026-05-06 16:52 42.46496 -72.32001 22510 ft 440 kts 74°
2026-05-06 16:52 42.47446 -72.28071 21927 ft 438 kts 75°
2026-05-06 16:52 42.48395 -72.24139 21334 ft 437 kts 75°
2026-05-06 16:53 42.49331 -72.20255 20763 ft 434 kts 75°
2026-05-06 16:53 42.50261 -72.16393 20202 ft 432 kts 75°
2026-05-06 16:53 42.51197 -72.12498 19612 ft 428 kts 76°
2026-05-06 16:53 42.52115 -72.08673 19066 ft 425 kts 75°
2026-05-06 16:54 42.53022 -72.04885 18478 ft 421 kts 76°
2026-05-06 16:54 42.53927 -72.01109 17935 ft 418 kts 76°
2026-05-06 16:54 42.54824 -71.97349 17418 ft 417 kts 76°
2026-05-06 16:54 42.55719 -71.93594 16832 ft 414 kts 76°
2026-05-06 16:55 42.56599 -71.89901 16436 ft 412 kts 76°
2026-05-06 16:55 42.57484 -71.86169 15836 ft 409 kts 76°
2026-05-06 16:55 42.58156 -71.82501 15296 ft 397 kts 89°
2026-05-06 16:55 42.58087 -71.78816 14727 ft 379 kts 107°
2026-05-06 16:56 42.57561 -71.75354 14223 ft 371 kts 111°
2026-05-06 16:56 42.56994 -71.71925 13744 ft 370 kts 111°
2026-05-06 16:56 42.56441 -71.68542 13265 ft 364 kts 111°
2026-05-06 16:56 42.55907 -71.65247 12797 ft 357 kts 111°
2026-05-06 16:57 42.55382 -71.62012 12331 ft 350 kts 111°
2026-05-06 16:57 42.54842 -71.58800 11860 ft 343 kts 113°
2026-05-06 16:57 42.54246 -71.55703 11457 ft 332 kts 115°
2026-05-06 16:57 42.53631 -71.52762 11167 ft 321 kts 115°
2026-05-06 16:58 42.53021 -71.49863 10915 ft 313 kts 116°
2026-05-06 16:58 42.52419 -71.47016 10566 ft 312 kts 116°
2026-05-06 16:58 42.51828 -71.44222 10261 ft 311 kts 116°
2026-05-06 16:58 42.51226 -71.41376 9944 ft 309 kts 116°
2026-05-06 16:59 42.50639 -71.38598 9627 ft 307 kts 116°
2026-05-06 16:59 42.50058 -71.35816 9335 ft 305 kts 115°
2026-05-06 16:59 42.49493 -71.33013 9016 ft 303 kts 116°
2026-05-06 16:59 42.48940 -71.30263 8723 ft 301 kts 116°
2026-05-06 17:00 42.48386 -71.27518 8405 ft 300 kts 116°
2026-05-06 17:00 42.47836 -71.24787 8110 ft 299 kts 116°
2026-05-06 17:00 42.47291 -71.22083 7812 ft 298 kts 116°
2026-05-06 17:00 42.46749 -71.19392 7512 ft 298 kts 115°
2026-05-06 17:01 42.46462 -71.16586 7226 ft 302 kts 98°
2026-05-06 17:01 42.46827 -71.13782 6926 ft 308 kts 76°
2026-05-06 17:01 42.47722 -71.11150 6576 ft 306 kts 70°
2026-05-06 17:01 42.48676 -71.08585 6227 ft 299 kts 64°
2026-05-06 17:02 42.49977 -71.06454 6043 ft 289 kts 40°
2026-05-06 17:02 42.51712 -71.05042 6009 ft 289 kts 20°
2026-05-06 17:02 42.53610 -71.04069 5971 ft 289 kts 17°
2026-05-06 17:02 42.55480 -71.03127 5970 ft 289 kts 18°
2026-05-06 17:03 42.57356 -71.02181 5965 ft 283 kts 18°
2026-05-06 17:03 42.59206 -71.01250 5967 ft 280 kts 17°
2026-05-06 17:03 42.61033 -71.00331 5900 ft 281 kts 17°
2026-05-06 17:03 42.62864 -70.99412 5620 ft 276 kts 18°
2026-05-06 17:04 42.64640 -70.98522 5327 ft 267 kts 18°
2026-05-06 17:04 42.66380 -70.97652 5043 ft 263 kts 18°
2026-05-06 17:04 42.68015 -70.96561 4944 ft 263 kts 39°
2026-05-06 17:04 42.69019 -70.94603 4951 ft 251 kts 80°
2026-05-06 17:05 42.69029 -70.92359 4945 ft 225 kts 120°
2026-05-06 17:05 42.68296 -70.90597 4956 ft 213 kts 136°
2026-05-06 17:05 42.67459 -70.88917 4963 ft 211 kts 140°
2026-05-06 17:05 42.66355 -70.87808 4948 ft 192 kts 165°
2026-05-06 17:06 42.65123 -70.87248 4944 ft 173 kts 182°
2026-05-06 17:06 42.64017 -70.87328 4961 ft 147 kts 197°
2026-05-06 17:06 42.63044 -70.87661 4957 ft 142 kts 203°
2026-05-06 17:06 42.62110 -70.88084 4931 ft 141 kts 205°
2026-05-06 17:07 42.61183 -70.88538 4767 ft 140 kts 204°
2026-05-06 17:07 42.60266 -70.88991 4611 ft 140 kts 205°
2026-05-06 17:07 42.59345 -70.89443 4422 ft 139 kts 205°
2026-05-06 17:07 42.58434 -70.89888 4253 ft 139 kts 205°
2026-05-06 17:08 42.57532 -70.90328 4070 ft 138 kts 204°
2026-05-06 17:08 42.56621 -70.90772 3895 ft 139 kts 204°
2026-05-06 17:08 42.55708 -70.91217 3706 ft 138 kts 204°
2026-05-06 17:08 42.54796 -70.91662 3532 ft 139 kts 204°
2026-05-06 17:09 42.53875 -70.92110 3343 ft 139 kts 203°
2026-05-06 17:09 42.52956 -70.92558 3163 ft 141 kts 203°
2026-05-06 17:09 42.52034 -70.93007 2976 ft 140 kts 204°
2026-05-06 17:09 42.51139 -70.93441 2780 ft 133 kts 203°
2026-05-06 17:10 42.50272 -70.93861 2632 ft 131 kts 204°
2026-05-06 17:10 42.49410 -70.94282 2456 ft 130 kts 204°
2026-05-06 17:10 42.48565 -70.94693 2291 ft 130 kts 204°
2026-05-06 17:10 42.47702 -70.95115 2118 ft 131 kts 203°
2026-05-06 17:11 42.46901 -70.95499 1985 ft 106 kts 202°
2026-05-06 17:11 42.46220 -70.95823 1835 ft 103 kts 203°
2026-05-06 17:11 42.45561 -70.96146 1670 ft 98 kts 204°
2026-05-06 17:11 42.44917 -70.96467 1551 ft 98 kts 202°
2026-05-06 17:12 42.44269 -70.96790 1425 ft 98 kts 203°
2026-05-06 17:12 42.43623 -70.97109 1303 ft 100 kts 201°
2026-05-06 17:12 42.42957 -70.97433 1175 ft 101 kts 201°
2026-05-06 17:12 42.42288 -70.97757 1047 ft 102 kts 201°
2026-05-06 17:13 42.41615 -70.98080 910 ft 102 kts 200°
2026-05-06 17:13 42.40924 -70.98381 782 ft 102 kts 199°
2026-05-06 17:13 42.40240 -70.98695 618 ft 103 kts 200°
2026-05-06 17:13 42.39557 -70.99019 482 ft 103 kts 199°
2026-05-06 17:14 42.38909 -70.99338 386 ft 99 kts 200°
2026-05-06 17:14 42.38237 -70.99670 232 ft 101 kts 197°
2026-05-06 17:14 42.37590 -70.99976 94 ft 99 kts 199°
2026-05-06 17:14 42.36914 -71.00307 18 ft 95 kts 198°
2026-05-06 17:15 42.36383 -71.00568 16 ft 54 kts 200°
2026-05-06 17:15 42.36174 -71.00680 16 ft 23 kts 228°
2026-05-06 17:15 42.36150 -71.00813 16 ft 13 kts 294°
2026-05-06 17:15 42.36193 -71.00942 18 ft 15 kts 294°
2026-05-06 17:16 42.36234 -71.01070 19 ft 12 kts 293°
2026-05-06 17:16 42.36278 -71.01193 19 ft 16 kts 303°
2026-05-06 17:16 42.36333 -71.01301 19 ft 13 kts 318°
2026-05-06 17:16 42.36460 -71.01273 19 ft 23 kts 20°
2026-05-06 17:17 42.36613 -71.01199 17 ft 18 kts 20°
2026-05-06 17:17 42.36700 -71.01158 16 ft 5 kts 18°
2026-05-06 17:17 42.36756 -71.01139 16 ft 10 kts
2026-05-06 17:17 42.36842 -71.01215 16 ft 18 kts 314°
2026-05-06 17:18 42.36944 -71.01352 16 ft 22 kts 314°
2026-05-06 17:18 42.37064 -71.01514 15 ft 24 kts 315°
2026-05-06 17:18 42.37157 -71.01633 16 ft 12 kts 316°
2026-05-06 17:18 42.37227 -71.01730 16 ft 16 kts 314°
2026-05-06 17:19 42.37301 -71.01830 16 ft 3 kts 315°
2026-05-06 17:19 42.37348 -71.01894 16 ft 16 kts 315°
2026-05-06 17:19 42.37392 -71.01953 16 ft 5 kts 315°
2026-05-06 17:19 42.37427 -71.02000 16 ft 5 kts 314°
2026-05-06 17:20 42.37442 -71.02021 16 ft 5 kts 314°
2026-05-06 17:20 42.37463 -71.02050 16 ft 6 kts 314°
2026-05-06 17:20 42.37484 -71.02078 16 ft 4 kts 314°
2026-05-06 17:20 42.37486 -71.02130 16 ft 8 kts 224°
2026-05-06 17:21 42.37448 -71.02180 16 ft 4 kts 224°
2026-05-06 17:21 42.37437 -71.02206 16 ft 1 kts 297°
2026-05-06 17:21 42.37447 -71.02219 16 ft 0 kts 316°